Zurück zum Katalog

KUIPER-00149

AktivKommunikationLEO
NORAD 65968·PAYLOAD·🇺🇸 United States

Gestartet Oct 14, 2025 von Cape Canaveral Space Force Station

Loading…

Nächste Überflüge (nächste 24 Stunden)

TLE

AktuellSource: CelesTrak SupGP

Epoche: Sep 14, 2026, 16:35 UTC

1 65968C 25228X   26257.69143519  .00002592  00000+0  33925-3 0  2572
2 65968  51.8998 222.3530 0000811  65.2018 239.2861 14.79928230    12

Verfolge KUIPER-00149 in Echtzeit mit AllMySat

Download on the App Store